Vertical_Velocity
-1 -0 -1 -0 -2 -1 -1 0 -1 -2 -0 0 -1 -1 -1 -1 -0 1 1 -0 -1 1 1 0 1 -1 1 1 2 2 1 1 -6 6 2 -0 1 -1 -1 -3 -2 -2 -2
-0 -1 -1 -2 -1 0 0 -2 -2 -1 -0 -2 -1 -1 -0 0 -0 0 1 2 -2 -1 1 2 0 0 0 -1 -0 0 -1 2 -6 2 2 3 -0 -2 -0 -3 -1 -2 -2
-1 -1 -2 -2 -0 -1 -2 -2 -1 -0 -1 -0 -1 -1 -1 -2 -1 -0 -1 -0 -0 -2 -1 -1 -1 0 2 0 -1 -1 1 -2 -4 -2 1 3 2 -2 0 -1 -1 -2 -2
-1 -2 -2 0 -1 -3 -3 -1 -2 -2 -1 -1 -1 -1 -0 -1 -1 0 0 0 0 0 -1 -2 -1 -1 -0 1 1 1 1 -0 0 -2 -2 1 1 3 -3 -1 0 0 -0
-1 -2 -0 -0 -1 -1 -0 -2 -2 -1 -2 -3 -1 0 0 0 -1 -2 -1 -1 -1 1 0 -1 -0 -0 -1 -1 -2 1 1 2 1 -1 -2 -2 2 -1 0 -3 1 -1 -0
-3 -1 -1 -0 -0 -2 -1 -2 -1 -1 0 -1 0 -2 1 1 3 2 -1 -2 -1 0 0 2 -1 -1 0 1 -0 -0 1 -1 -1 -0 -0 -1 1 -0 -2 -2 -1 1 -5
-2 -1 -0 0 -1 -2 -2 -1 0 -2 -1 -2 -2 1 1 3 2 3 1 0 -1 -0 -1 -1 1 0 1 0 2 0 -1 4 -1 0 1 1 -4 1 -3 -2 2 -0 3
-1 -1 0 1 -2 -1 -0 -1 1 -2 -3 -4 -1 2 0 -0 1 1 2 1 -0 -0 -1 -2 -1 1 -1 -2 -0 -0 -1 -2 -2 -2 -1 0 1 -3 -2 -0 -1 -2 -1
0 -0 0 -2 -2 -1 0 -1 -1 -1 1 -1 -0 0 2 -1 -1 -1 -0 2 2 1 -0 -0 -1 0 0 -1 -1 -0 0 1 0 -0 -2 -1 -1 -1 -1 -2 -1 -1 0
1 -1 -3 -1 -1 -1 -1 -0 -0 -1 -2 3 2 2 -1 -1 -2 -4 -4 -2 -1 -0 3 3 3 1 1 0 0 0 2 -1 0 -0 -1 -2 -2 -2 -2 -1 -1 -1 -2
-2 -1 -1 -0 -1 -2 -2 -1 -0 0 3 3 2 2 2 -3 -1 -2 -4 -4 -3 -4 -3 0 -0 -1 -0 4 3 3 1 -1 0 1 1 -1 -1 -2 -2 -2 -2 -1 -2
-1 -3 -1 -0 -2 -1 -1 0 2 2 4 4 2 3 0 1 -2 -2 3 -1 -1 -3 -2 -2 -2 -1 2 1 2 -1 1 1 1 -1 1 1 -1 -1 -1 -0 0 -1 -1
-2 -1 -1 -2 -1 -1 -1 1 2 -2 -1 -1 -3 -3 -3 -1 -1 2 1 4 1 1 1 1 4 1 4 3 -1 3 4 3 2 1 -1 -2 -0 -1 -2 -2 -0 -1 -1
-2 -1 -1 -1 -3 1 -2 -3 -1 -0 -2 -3 -1 -1 -2 -6 -3 -1 0 -1 5 6 7 4 3 1 0 -2 2 3 2 1 1 1 1 1 -5 -2 -0 -2 -2 -2 -1
-2 -1 -1 -2 -2 -5 -3 -2 -3 -6 -7 -3 -4 -5 -2 -3 -8 0 -3 -11 -9 3 5 7 8 5 2 2 2 2 4 4 5 3 3 2 1 -0 -4 -0 -1 -4 -2
-2 -0 -2 -2 -1 -1 -3 -6 -1 -2 -1 1 -1 2 2 1 4 1 2 2 -1 16 4 1 -1 -2 -3 -2 0 2 0 4 2 1 1 1 -2 -0 -2 -2 -3 0 1
-2 -2 -2 -1 -0 -1 -0 1 2 -7 -3 2 -0 2 -1 1 4 2 2 -1 5 16 -2 -0 -2 -1 1 3 3 1 2 2 2 5 2 1 0 1 -4 -3 -3 -2 0
-2 -2 -1 -2 -3 -2 -1 -1 -0 -1 -1 1 1 -2 0 3 1 3 5 16 12 1 -6 -9 -5 0 1 2 4 5 7 7 4 5 6 4 1 0 -2 -0 -2 -1 -1
-2 -2 -3 -4 -3 -2 -2 -0 0 -0 0 4 9 8 4 1 -0 2 1 -2 -3 -3 -0 0 -2 -3 4 5 4 11 10 7 6 9 6 3 3 3 1 0 -2 -2 -4
-2 -2 -4 -4 -2 -2 -2 -2 -1 -2 -0 -1 -0 -3 3 10 1 -6 -4 0 -1 0 1 2 4 4 2 -6 2 9 10 12 15 12 5 1 1 2 1 0 0 1 -1
-2 -2 -4 -3 -2 -2 -4 -2 -3 -3 -4 -3 -4 -4 -2 -3 -4 -4 -3 -4 -2 -2 -0 -1 2 5 3 0 5 0 4 13 13 15 8 5 6 1 3 4 3 3 -2
-3 -3 -4 -3 -3 -2 -3 -2 -1 -2 -3 -2 -2 -1 -1 -0 -0 -1 -2 -2 -4 -1 2 -1 -6 -4 -7 -5 2 2 -1 -5 11 14 14 12 15 9 7 10 7 19 4
-3 -3 -3 -3 -2 -5 -3 -2 -1 -1 -3 -3 -2 -0 -2 -5 -4 -2 -2 -1 1 1 2 1 2 -0 -1 -2 2 3 0 -5 -7 -3 13 19 19 8 11 12 11 4 15
-2 -3 -3 -2 -3 -3 -3 -3 -2 -2 -1 -1 -2 -2 -1 -1 -2 -3 -1 -0 1 1 3 2 -2 -0 5 -1 1 0 5 6 6 6 7 -3 19 22 32 23 25 3 17
-2 -2 -1 -2 -2 -2 -3 -2 -1 -2 -2 -1 -2 -2 -2 -1 -0 -2 -1 -3 -1 1 -1 2 0 2 2 2 4 5 4 6 6 8 6 5 2 3 4 2 4 12 8
-2 -2 -2 -1 -1 -1 -2 -2 -2 -2 -1 -1 -1 -1 -2 -1 -0 0 -0 -1 -0 -0 -0 -1 -0 3 4 -2 -1 4 3 1 1 -1 1 1 2 2 -1 -11 -0 5 7
Height
3085 3080 3074 3069 3063 3057 3051 3044 3036 3028 3020 3012 3003 2995 2987 2979 2971 2963 2955 2946 2937 2930 2923 2917 2912 2908 2904 2902 2899 2898 2897 2896 2895 2897 2897 2898 2900 2901 2902 2903 2907 2910 2914
3084 3079 3074 3068 3063 3057 3050 3042 3035 3027 3018 3009 3000 2992 2984 2975 2967 2958 2949 2940 2931 2924 2918 2913 2908 2904 2900 2897 2895 2893 2892 2891 2891 2890 2891 2892 2893 2894 2895 2897 2899 2903 2907
3084 3079 3074 3068 3062 3056 3048 3041 3033 3025 3016 3007 2998 2988 2979 2970 2961 2951 2942 2934 2927 2920 2914 2908 2904 2900 2896 2893 2891 2889 2888 2886 2885 2884 2884 2885 2887 2888 2889 2891 2893 2896 2900
3084 3078 3073 3067 3061 3054 3047 3040 3032 3023 3014 3005 2995 2986 2976 2967 2957 2947 2938 2931 2923 2916 2910 2905 2900 2896 2892 2889 2886 2884 2882 2881 2880 2878 2879 2879 2880 2882 2883 2885 2887 2890 2893
3083 3078 3073 3067 3061 3054 3047 3039 3031 3022 3013 3003 2994 2985 2976 2965 2954 2943 2935 2927 2920 2914 2908 2903 2898 2893 2889 2885 2882 2879 2877 2875 2873 2872 2873 2873 2874 2875 2877 2879 2881 2884 2887
3082 3078 3073 3067 3061 3054 3047 3039 3030 3021 3012 3003 2993 2983 2974 2964 2954 2943 2934 2926 2919 2912 2907 2902 2896 2891 2886 2883 2880 2877 2874 2871 2868 2867 2866 2867 2869 2870 2871 2874 2876 2878 2882
3083 3078 3073 3067 3061 3054 3046 3038 3029 3020 3011 3002 2993 2984 2974 2965 2954 2944 2934 2925 2918 2911 2904 2899 2894 2888 2884 2880 2876 2873 2870 2866 2863 2862 2861 2861 2863 2865 2866 2868 2871 2874 2878
3084 3079 3074 3068 3061 3055 3047 3039 3030 3020 3010 3001 2993 2984 2975 2965 2954 2943 2933 2925 2917 2910 2903 2897 2891 2886 2881 2876 2872 2868 2865 2862 2859 2858 2857 2856 2857 2859 2861 2864 2866 2868 2872
3085 3079 3074 3068 3062 3055 3048 3039 3030 3021 3012 3002 2993 2984 2976 2965 2955 2944 2933 2925 2917 2909 2901 2895 2888 2883 2878 2873 2868 2864 2861 2858 2855 2853 2852 2852 2852 2854 2856 2858 2861 2865 2869
3085 3079 3074 3068 3062 3056 3048 3039 3031 3022 3013 3005 2996 2987 2977 2967 2957 2945 2934 2925 2917 2908 2901 2894 2887 2880 2874 2869 2864 2860 2857 2854 2851 2849 2847 2847 2847 2849 2851 2854 2857 2861 2865
3085 3080 3075 3069 3063 3056 3049 3041 3034 3026 3018 3009 3000 2989 2979 2969 2958 2947 2936 2924 2914 2906 2900 2894 2887 2879 2873 2867 2862 2858 2854 2851 2849 2846 2844 2844 2844 2845 2847 2850 2853 2857 2862
3086 3080 3075 3070 3064 3057 3050 3043 3037 3030 3022 3013 3003 2993 2983 2972 2961 2950 2939 2928 2918 2909 2901 2894 2886 2879 2873 2867 2862 2857 2853 2850 2847 2845 2843 2842 2842 2843 2845 2847 2851 2855 2860
3087 3082 3076 3070 3065 3059 3052 3045 3039 3031 3023 3014 3004 2994 2984 2975 2966 2954 2944 2934 2923 2914 2906 2898 2891 2883 2875 2869 2863 2858 2853 2849 2846 2845 2843 2842 2841 2842 2843 2846 2849 2852 2856
3088 3083 3077 3072 3066 3060 3053 3046 3040 3033 3025 3016 3006 2996 2986 2978 2967 2956 2948 2939 2928 2920 2912 2903 2894 2885 2877 2871 2866 2859 2854 2850 2847 2844 2842 2841 2841 2841 2842 2844 2847 2851 2855
3090 3084 3079 3073 3067 3061 3054 3048 3041 3034 3026 3018 3009 2999 2991 2981 2971 2966 2957 2947 2936 2926 2917 2909 2900 2890 2882 2874 2867 2861 2854 2850 2846 2843 2841 2839 2838 2839 2840 2842 2844 2848 2853
3091 3086 3081 3075 3070 3064 3057 3050 3044 3038 3031 3024 3016 3009 3001 2993 2986 2977 2969 2960 2949 2935 2923 2913 2903 2894 2886 2877 2870 2863 2857 2851 2846 2842 2838 2836 2837 2836 2837 2839 2841 2845 2850
3094 3088 3083 3078 3073 3067 3061 3055 3049 3042 3037 3031 3024 3017 3009 3001 2994 2986 2978 2968 2958 2945 2929 2919 2910 2901 2893 2884 2876 2868 2860 2853 2846 2840 2835 2832 2832 2832 2835 2837 2840 2844 2848
3096 3091 3086 3081 3076 3071 3065 3060 3054 3049 3043 3037 3030 3023 3017 3011 3003 2996 2988 2981 2965 2951 2940 2929 2919 2910 2901 2893 2884 2875 2867 2858 2850 2842 2834 2829 2828 2828 2831 2834 2838 2844 2849
3100 3095 3089 3084 3079 3074 3069 3064 3059 3054 3048 3043 3037 3032 3025 3017 3009 3002 2993 2980 2970 2961 2953 2943 2933 2922 2911 2903 2894 2885 2876 2866 2856 2846 2838 2833 2831 2830 2831 2833 2837 2842 2847
3104 3099 3094 3089 3084 3079 3074 3069 3064 3060 3055 3049 3043 3037 3031 3026 3017 3007 2998 2990 2982 2973 2965 2956 2946 2936 2926 2915 2904 2895 2887 2878 2867 2856 2846 2841 2839 2839 2839 2841 2844 2847 2852
3107 3103 3098 3094 3089 3085 3080 3075 3070 3065 3060 3055 3049 3044 3038 3031 3024 3016 3008 3001 2993 2985 2977 2968 2959 2949 2940 2930 2919 2908 2898 2890 2882 2872 2863 2855 2850 2849 2849 2849 2852 2856 2860
3111 3107 3103 3099 3095 3090 3085 3081 3077 3072 3067 3062 3057 3052 3047 3041 3034 3026 3019 3012 3005 2997 2990 2981 2972 2962 2953 2944 2933 2923 2914 2904 2895 2888 2881 2873 2865 2859 2859 2860 2862 2866 2871
3114 3111 3107 3104 3100 3096 3092 3087 3084 3079 3075 3070 3065 3060 3055 3049 3042 3036 3029 3023 3016 3009 3002 2994 2986 2977 2967 2957 2946 2936 2927 2920 2915 2907 2897 2891 2883 2875 2869 2871 2875 2879 2884
3117 3114 3111 3108 3105 3101 3097 3094 3090 3085 3081 3077 3072 3067 3061 3056 3050 3045 3039 3033 3027 3020 3013 3006 2997 2989 2981 2972 2962 2954 2947 2939 2932 2924 2916 2909 2902 2896 2890 2886 2888 2896 2899
3119 3116 3114 3111 3108 3105 3102 3098 3095 3091 3087 3083 3079 3074 3069 3064 3059 3053 3048 3042 3036 3030 3023 3016 3009 3002 2995 2987 2979 2971 2964 2957 2949 2941 2933 2927 2919 2912 2908 2906 2907 2907 2911
3121 3119 3116 3113 3111 3109 3106 3102 3099 3096 3092 3089 3085 3080 3075 3070 3065 3061 3056 3050 3044 3038 3032 3026 3019 3013 3007 3000 2993 2986 2979 2972 2964 2957 2950 2943 2937 2931 2927 2924 2922 2921 2921